QPF
0.00 0.00 0.00 0.00 0.00 0.00 0.00 0.00 0.00 0.00 0.00 0.00 0.00 0.00 0.00 0.00 0.00 0.00 0.00 0.00 0.00 0.00 0.00 0.00 0.00 0.00 0.00 0.00 0.00 0.00 0.00 0.00 0.00 0.00 0.00 0.00 0.00 0.00 0.00 0.00 0.00 0.00
0.00 0.00 0.00 0.00 0.00 0.00 0.00 0.00 0.00 0.00 0.00 0.00 0.00 0.00 0.00 0.00 0.00 0.00 0.00 0.00 0.00 0.00 0.00 0.00 0.00 0.00 0.00 0.00 0.00 0.00 0.00 0.00 0.00 0.00 0.00 0.00 0.00 0.00 0.00 0.00 0.00 0.00
0.00 0.00 0.00 0.00 0.00 0.00 0.00 0.00 0.00 0.00 0.00 0.00 0.00 0.00 0.00 0.00 0.00 0.00 0.00 0.00 0.00 0.00 0.00 0.00 0.00 0.00 0.00 0.00 0.00 0.00 0.00 0.00 0.00 0.00 0.00 0.00 0.00 0.00 0.00 0.00 0.00 0.00
0.00 0.00 0.00 0.00 0.00 0.00 0.00 0.00 0.00 0.00 0.00 0.00 0.00 0.00 0.00 0.00 0.00 0.00 0.00 0.00 0.00 0.00 0.00 0.00 0.00 0.00 0.00 0.00 0.00 0.00 0.00 0.00 0.00 0.00 0.00 0.00 0.00 0.00 0.00 0.00 0.00 0.00
0.00 0.00 0.00 0.00 0.00 0.00 0.00 0.00 0.00 0.00 0.00 0.00 0.00 0.00 0.00 0.00 0.00 0.00 0.00 0.00 0.00 0.00 0.00 0.00 0.00 0.00 0.00 0.00 0.00 0.00 0.00 0.00 0.00 0.00 0.00 0.00 0.00 0.00 0.00 0.00 0.00 0.00
0.00 0.00 0.00 0.00 0.00 0.00 0.00 0.00 0.00 0.00 0.00 0.00 0.00 0.00 0.00 0.00 0.00 0.00 0.00 0.00 0.00 0.00 0.00 0.00 0.00 0.00 0.00 0.00 0.00 0.00 0.00 0.00 0.00 0.00 0.00 0.00 0.00 0.00 0.00 0.00 0.00 0.00
0.00 0.00 0.00 0.00 0.00 0.00 0.00 0.00 0.00 0.00 0.00 0.00 0.00 0.00 0.00 0.00 0.00 0.00 0.00 0.00 0.00 0.00 0.00 0.00 0.00 0.00 0.00 0.00 0.00 0.00 0.00 0.00 0.00 0.00 0.00 0.00 0.00 0.00 0.00 0.00 0.00 0.00
0.00 0.00 0.00 0.00 0.00 0.00 0.00 0.00 0.00 0.00 0.00 0.00 0.00 0.00 0.00 0.00 0.00 0.00 0.00 0.00 0.00 0.00 0.00 0.00 0.00 0.00 0.00 0.00 0.00 0.00 0.00 0.00 0.00 0.00 0.00 0.00 0.00 0.00 0.00 0.01 0.00 0.00
0.00 0.00 0.00 0.00 0.00 0.00 0.00 0.00 0.00 0.00 0.00 0.00 0.00 0.00 0.00 0.00 0.00 0.00 0.00 0.00 0.00 0.00 0.00 0.00 0.00 0.00 0.00 0.00 0.00 0.00 0.00 0.00 0.00 0.00 0.00 0.00 0.00 0.00 0.00 0.00 0.00 0.00
0.00 0.00 0.00 0.00 0.00 0.00 0.00 0.00 0.00 0.00 0.00 0.00 0.00 0.00 0.00 0.00 0.00 0.00 0.00 0.00 0.00 0.00 0.00 0.00 0.00 0.00 0.00 0.00 0.00 0.00 0.00 0.00 0.00 0.00 0.00 0.00 0.00 0.00 0.00 0.00 0.00 0.00
0.00 0.00 0.00 0.00 0.00 0.00 0.00 0.00 0.00 0.00 0.00 0.00 0.00 0.00 0.00 0.00 0.00 0.00 0.00 0.00 0.00 0.00 0.00 0.00 0.00 0.00 0.00 0.00 0.00 0.00 0.00 0.00 0.00 0.00 0.00 0.00 0.00 0.00 0.00 0.00 0.01 0.01
0.00 0.00 0.00 0.00 0.00 0.00 0.00 0.00 0.00 0.00 0.00 0.00 0.00 0.00 0.00 0.00 0.00 0.00 0.00 0.00 0.00 0.00 0.00 0.00 0.00 0.00 0.00 0.00 0.00 0.00 0.00 0.00 0.00 0.00 0.00 0.00 0.00 0.00 0.00 0.00 0.02 0.00
0.00 0.00 0.00 0.00 0.00 0.00 0.00 0.00 0.00 0.00 0.00 0.00 0.00 0.00 0.00 0.00 0.00 0.00 0.00 0.00 0.00 0.00 0.00 0.00 0.00 0.00 0.00 0.00 0.00 0.00 0.00 0.00 0.00 0.00 0.00 0.00 0.00 0.00 0.00 0.00 0.00 0.00
0.00 0.00 0.00 0.00 0.00 0.00 0.00 0.00 0.00 0.00 0.00 0.00 0.00 0.00 0.00 0.00 0.00 0.00 0.00 0.00 0.00 0.00 0.00 0.00 0.00 0.00 0.00 0.00 0.00 0.00 0.00 0.00 0.00 0.00 0.00 0.00 0.00 0.00 0.00 0.01 0.02 0.00
0.00 0.00 0.00 0.00 0.00 0.00 0.00 0.00 0.00 0.00 0.00 0.00 0.00 0.00 0.00 0.00 0.00 0.00 0.00 0.00 0.00 0.00 0.00 0.00 0.00 0.00 0.00 0.00 0.00 0.00 0.00 0.00 0.00 0.00 0.00 0.00 0.00 0.00 0.00 0.00 0.00 0.00
0.00 0.00 0.00 0.00 0.00 0.00 0.00 0.00 0.00 0.00 0.00 0.00 0.00 0.00 0.00 0.00 0.00 0.00 0.00 0.00 0.00 0.00 0.00 0.00 0.00 0.00 0.00 0.00 0.00 0.00 0.00 0.00 0.00 0.00 0.00 0.00 0.00 0.00 0.00 0.00 0.00 0.00
0.00 0.00 0.00 0.00 0.00 0.00 0.00 0.00 0.00 0.00 0.00 0.00 0.00 0.00 0.00 0.00 0.00 0.00 0.00 0.00 0.00 0.00 0.00 0.00 0.00 0.00 0.00 0.00 0.00 0.00 0.00 0.00 0.00 0.00 0.00 0.00 0.00 0.00 0.00 0.00 0.00 0.00
0.00 0.00 0.00 0.00 0.00 0.00 0.00 0.00 0.00 0.00 0.00 0.00 0.01 0.00 0.00 0.00 0.00 0.00 0.00 0.00 0.00 0.00 0.00 0.00 0.00 0.00 0.00 0.00 0.00 0.00 0.00 0.00 0.00 0.00 0.00 0.00 0.00 0.00 0.00 0.00 0.00 0.00
0.00 0.00 0.00 0.00 0.00 0.00 0.00 0.00 0.00 0.00 0.00 0.01 0.01 0.00 0.00 0.00 0.00 0.00 0.00 0.00 0.00 0.00 0.00 0.00 0.00 0.00 0.00 0.00 0.00 0.00 0.00 0.00 0.00 0.00 0.00 0.00 0.00 0.00 0.00 0.00 0.00 0.00
0.00 0.00 0.00 0.00 0.00 0.00 0.00 0.00 0.00 0.00 0.00 0.00 0.00 0.00 0.00 0.00 0.00 0.00 0.00 0.00 0.00 0.00 0.00 0.00 0.00 0.00 0.00 0.00 0.00 0.00 0.00 0.00 0.00 0.00 0.00 0.00 0.00 0.00 0.00 0.00 0.00 0.00
0.00 0.00 0.00 0.00 0.00 0.00 0.00 0.00 0.00 0.00 0.00 0.01 0.00 0.00 0.00 0.00 0.00 0.00 0.00 0.00 0.00 0.00 0.00 0.00 0.00 0.00 0.00 0.00 0.00 0.00 0.00 0.00 0.00 0.00 0.00 0.00 0.00 0.00 0.00 0.00 0.00 0.00
0.00 0.00 0.00 0.00 0.00 0.01 0.00 0.00 0.00 0.00 0.00 0.00 0.00 0.00 0.00 0.00 0.00 0.00 0.00 0.00 0.00 0.00 0.00 0.00 0.00 0.00 0.00 0.00 0.00 0.00 0.00 0.00 0.00 0.00 0.00 0.00 0.00 0.00 0.00 0.00 0.00 0.00
0.00 0.00 0.00 0.00 0.00 0.01 0.03 0.00 0.01 0.00 0.00 0.02 0.01 0.00 0.00 0.00 0.00 0.00 0.00 0.00 0.00 0.00 0.00 0.00 0.00 0.00 0.00 0.00 0.00 0.00 0.00 0.00 0.00 0.00 0.00 0.00 0.00 0.00 0.00 0.00 0.00 0.00
0.00 0.00 0.00 0.00 0.00 0.01 0.02 0.01 0.00 0.00 0.00 0.00 0.00 0.00 0.00 0.00 0.00 0.00 0.00 0.00 0.00 0.00 0.00 0.00 0.00 0.00 0.00 0.00 0.00 0.00 0.00 0.00 0.00 0.00 0.00 0.00 0.00 0.00 0.00 0.00 0.00 0.00
0.00 0.00 0.00 0.00 0.00 0.10 0.01 0.07 0.00 0.00 0.00 0.00 0.00 0.00 0.00 0.00 0.00 0.00 0.00 0.00 0.00 0.00 0.00 0.00 0.00 0.00 0.00 0.00 0.00 0.00 0.00 0.00 0.00 0.00 0.00 0.00 0.00 0.00 0.00 0.00 0.00 0.00
0.00 0.00 0.00 0.00 0.01 0.00 0.02 0.00 0.00 0.00 0.00 0.00 0.00 0.00 0.00 0.00 0.00 0.00 0.00 0.00 0.00 0.00 0.00 0.00 0.00 0.00 0.00 0.00 0.00 0.00 0.00 0.00 0.00 0.00 0.00 0.00 0.00 0.00 0.00 0.00 0.00 0.00
MSLP
1015.83 1015.83 1015.83 1015.87 1015.87 1015.91 1015.87 1015.87 1015.87 1015.91 1015.87 1015.83 1015.83 1015.63 1015.63 1015.43 1015.47 1015.47 1015.47 1015.47 1015.43 1015.43 1015.39 1015.39 1015.39 1015.39 1015.35 1015.39 1015.47 1015.55 1015.55 1015.51 1015.55 1015.55 1015.63 1015.63 1015.55 1015.51 1015.47 1015.43 1015.51 1015.55
1015.63 1015.75 1015.75 1015.79 1015.83 1015.75 1015.75 1015.79 1015.79 1015.83 1015.75 1015.71 1015.67 1015.59 1015.47 1015.43 1015.27 1015.35 1015.35 1015.35 1015.39 1015.35 1015.31 1015.39 1015.35 1015.35 1015.35 1015.35 1015.39 1015.47 1015.47 1015.51 1015.43 1015.43 1015.51 1015.55 1015.47 1015.51 1015.43 1015.35 1015.35 1015.43
1015.59 1015.63 1015.63 1015.63 1015.59 1015.55 1015.55 1015.67 1015.75 1015.71 1015.67 1015.59 1015.63 1015.63 1015.47 1015.39 1015.31 1015.23 1015.27 1015.27 1015.27 1015.23 1015.23 1015.23 1015.27 1015.27 1015.27 1015.27 1015.31 1015.35 1015.35 1015.31 1015.31 1015.19 1015.35 1015.27 1015.27 1015.39 1015.27 1015.27 1015.27 1015.27
1015.43 1015.43 1015.43 1015.47 1015.51 1015.51 1015.55 1015.63 1015.59 1015.59 1015.63 1015.59 1015.43 1015.39 1015.43 1015.35 1015.35 1015.31 1015.27 1015.23 1015.23 1015.15 1015.15 1015.19 1015.15 1015.15 1015.15 1015.19 1015.23 1015.27 1015.19 1015.15 1015.03 1015.11 1015.15 1015.11 1015.11 1015.11 1015.07 1015.11 1015.11 1015.15
1015.27 1015.31 1015.39 1015.43 1015.43 1015.51 1015.59 1015.59 1015.43 1015.43 1015.43 1015.39 1015.31 1015.31 1015.35 1015.31 1015.35 1015.31 1015.27 1015.23 1015.27 1015.19 1015.19 1015.15 1015.11 1015.11 1015.07 1015.07 1015.11 1015.11 1015.07 1015.03 1014.91 1015.07 1015.11 1014.99 1014.79 1014.91 1014.83 1014.95 1014.95 1014.91
1015.23 1015.23 1015.27 1015.31 1015.31 1015.39 1015.43 1015.39 1015.39 1015.51 1015.55 1015.51 1015.47 1015.47 1015.47 1015.43 1015.39 1015.31 1015.27 1015.23 1015.15 1015.15 1015.11 1015.07 1015.07 1015.03 1015.07 1015.07 1015.11 1015.07 1014.95 1014.95 1014.83 1014.99 1015.03 1014.91 1014.71 1014.75 1014.79 1014.79 1014.83 1014.75
1014.99 1015.03 1015.07 1015.23 1015.27 1015.31 1015.39 1015.59 1015.67 1015.55 1015.43 1015.31 1015.23 1015.19 1015.15 1015.11 1015.07 1015.03 1015.03 1015.07 1015.07 1015.07 1015.03 1014.99 1014.95 1014.91 1014.91 1014.95 1014.91 1014.87 1014.83 1014.83 1014.75 1014.83 1014.83 1014.67 1014.67 1014.51 1014.47 1014.55 1014.55 1014.51
1014.87 1014.99 1015.11 1015.31 1015.39 1015.51 1015.51 1015.47 1015.35 1015.31 1015.15 1015.11 1015.15 1015.15 1015.15 1015.11 1015.07 1015.11 1015.11 1015.11 1015.11 1015.07 1015.03 1014.99 1014.91 1014.83 1014.79 1014.83 1014.83 1014.83 1014.71 1014.67 1014.67 1014.67 1014.67 1014.59 1014.59 1014.51 1014.31 1014.47 1014.55 1014.55
1014.99 1015.07 1015.31 1015.35 1015.35 1015.35 1015.31 1015.23 1015.15 1015.07 1015.15 1015.19 1015.23 1015.15 1015.11 1015.11 1015.15 1015.11 1015.11 1015.11 1015.15 1015.15 1015.11 1015.07 1015.03 1014.95 1014.87 1014.87 1014.87 1014.87 1014.79 1014.67 1014.63 1014.63 1014.63 1014.55 1014.51 1014.43 1014.35 1014.39 1014.47 1014.43
1015.15 1015.27 1015.23 1015.27 1015.23 1015.19 1015.11 1015.07 1015.15 1015.19 1015.15 1015.15 1015.11 1015.11 1015.15 1015.23 1015.23 1015.23 1015.23 1015.27 1015.31 1015.35 1015.39 1015.39 1015.35 1015.31 1015.23 1015.19 1015.11 1015.03 1014.91 1014.79 1014.71 1014.67 1014.63 1014.59 1014.51 1014.43 1014.35 1014.35 1014.35 1014.31
1015.07 1015.11 1015.15 1015.15 1015.07 1015.07 1015.11 1015.15 1015.15 1015.15 1015.15 1015.19 1015.19 1015.27 1015.39 1015.39 1015.43 1015.43 1015.47 1015.51 1015.59 1015.67 1015.71 1015.71 1015.75 1015.71 1015.59 1015.43 1015.39 1015.31 1015.19 1015.03 1014.91 1014.79 1014.71 1014.67 1014.63 1014.55 1014.43 1014.39 1014.35 1014.35
1014.87 1014.95 1014.95 1014.91 1014.99 1015.11 1015.19 1015.23 1015.27 1015.27 1015.35 1015.39 1015.39 1015.51 1015.59 1015.63 1015.67 1015.75 1015.79 1015.87 1015.91 1015.99 1016.03 1016.07 1015.99 1015.91 1015.83 1015.75 1015.63 1015.47 1015.35 1015.27 1015.19 1015.07 1014.99 1014.87 1014.79 1014.71 1014.59 1014.47 1014.43 1014.35
1014.71 1014.71 1014.75 1014.91 1015.07 1015.19 1015.31 1015.35 1015.43 1015.51 1015.51 1015.63 1015.67 1015.71 1015.79 1015.91 1015.95 1016.03 1016.11 1016.11 1016.27 1016.27 1016.35 1016.35 1016.27 1016.19 1016.15 1016.03 1015.87 1015.75 1015.59 1015.51 1015.43 1015.35 1015.27 1015.19 1015.11 1014.99 1014.83 1014.67 1014.59 1014.51
1014.55 1014.75 1014.91 1015.11 1015.23 1015.31 1015.39 1015.51 1015.59 1015.67 1015.79 1015.83 1015.83 1015.91 1016.07 1016.15 1016.23 1016.31 1016.43 1016.43 1016.59 1016.67 1016.67 1016.59 1016.55 1016.55 1016.59 1016.43 1016.23 1016.11 1015.99 1015.87 1015.83 1015.75 1015.63 1015.51 1015.39 1015.27 1015.11 1014.99 1014.87 1014.71
1014.75 1014.95 1015.03 1015.15 1015.27 1015.35 1015.47 1015.63 1015.75 1015.91 1015.99 1016.03 1016.07 1016.19 1016.31 1016.43 1016.47 1016.51 1016.59 1016.75 1016.91 1016.95 1016.91 1016.87 1016.87 1016.99 1016.99 1016.83 1016.51 1016.43 1016.35 1016.27 1016.19 1016.07 1015.99 1015.87 1015.75 1015.55 1015.43 1015.27 1015.15 1014.99
1014.79 1014.95 1015.11 1015.23 1015.31 1015.39 1015.55 1015.71 1015.83 1015.99 1016.11 1016.23 1016.35 1016.51 1016.63 1016.67 1016.71 1016.79 1016.91 1017.03 1017.11 1017.15 1017.15 1017.11 1017.27 1017.31 1017.35 1017.07 1016.83 1016.71 1016.67 1016.55 1016.43 1016.39 1016.31 1016.23 1016.11 1015.95 1015.75 1015.55 1015.43 1015.35
1014.83 1015.03 1015.15 1015.27 1015.39 1015.47 1015.67 1015.75 1015.95 1016.07 1016.23 1016.43 1016.59 1016.71 1016.79 1016.87 1016.95 1017.07 1017.23 1017.27 1017.27 1017.31 1017.31 1017.43 1017.51 1017.59 1017.47 1017.27 1017.11 1016.95 1016.87 1016.83 1016.75 1016.71 1016.59 1016.47 1016.39 1016.31 1016.23 1016.03 1015.79 1015.59
1014.83 1014.99 1015.15 1015.35 1015.47 1015.63 1015.75 1015.91 1016.07 1016.19 1016.39 1016.59 1016.63 1016.79 1016.99 1017.07 1017.19 1017.31 1017.35 1017.39 1017.43 1017.47 1017.51 1017.63 1017.71 1017.79 1017.59 1017.43 1017.35 1017.27 1017.15 1017.07 1016.99 1016.91 1016.83 1016.75 1016.71 1016.63 1016.55 1016.39 1016.19 1015.95
1014.75 1014.95 1015.19 1015.39 1015.63 1015.75 1015.87 1016.03 1016.11 1016.31 1016.51 1016.47 1016.67 1017.03 1017.11 1017.23 1017.47 1017.43 1017.47 1017.55 1017.51 1017.51 1017.71 1017.79 1017.83 1017.91 1017.75 1017.59 1017.51 1017.43 1017.35 1017.23 1017.23 1017.15 1017.03 1017.03 1017.03 1016.91 1016.75 1016.59 1016.47 1016.27
1014.75 1014.91 1015.15 1015.43 1015.67 1015.83 1015.95 1016.07 1016.19 1016.47 1016.67 1016.67 1016.87 1017.11 1017.23 1017.47 1017.55 1017.51 1017.59 1017.63 1017.67 1017.71 1017.87 1017.99 1017.99 1018.07 1017.91 1017.75 1017.67 1017.59 1017.51 1017.39 1017.39 1017.31 1017.27 1017.27 1017.27 1017.15 1016.95 1016.83 1016.71 1016.55
1014.75 1014.95 1015.23 1015.55 1015.71 1015.83 1015.95 1016.11 1016.35 1016.63 1016.67 1016.83 1016.91 1016.99 1017.23 1017.39 1017.43 1017.51 1017.63 1017.67 1017.75 1017.83 1017.91 1017.99 1018.19 1018.27 1018.03 1017.91 1017.83 1017.75 1017.63 1017.55 1017.51 1017.43 1017.39 1017.39 1017.39 1017.27 1017.15 1017.03 1016.87 1016.67
1014.63 1014.95 1015.27 1015.51 1015.67 1015.83 1015.95 1016.11 1016.23 1016.27 1016.51 1016.71 1016.87 1017.23 1017.39 1017.47 1017.59 1017.55 1017.55 1017.67 1017.79 1017.87 1017.83 1017.95 1018.23 1018.39 1018.27 1018.11 1017.95 1017.83 1017.71 1017.63 1017.59 1017.51 1017.47 1017.43 1017.35 1017.35 1017.23 1017.11 1016.87 1016.71
1014.55 1014.83 1015.15 1015.39 1015.55 1015.67 1015.79 1015.91 1015.99 1016.27 1016.63 1016.75 1016.95 1017.23 1017.39 1017.47 1017.47 1017.47 1017.59 1017.63 1017.75 1017.83 1017.79 1018.03 1018.19 1018.51 1018.51 1018.31 1018.07 1017.95 1017.75 1017.71 1017.67 1017.55 1017.59 1017.55 1017.51 1017.43 1017.35 1017.19 1016.91 1016.67
1014.47 1014.67 1014.95 1015.23 1015.39 1015.51 1015.71 1016.03 1016.31 1016.35 1016.55 1016.63 1016.67 1017.19 1017.35 1017.35 1017.39 1017.47 1017.55 1017.59 1017.63 1017.79 1017.87 1017.91 1018.27 1018.67 1018.67 1018.43 1018.19 1018.03 1017.83 1017.71 1017.67 1017.55 1017.67 1017.67 1017.55 1017.47 1017.39 1017.31 1017.11 1016.87
1014.39 1014.59 1014.79 1015.03 1015.27 1015.63 1015.91 1016.15 1016.19 1016.19 1016.39 1016.59 1016.75 1016.95 1017.15 1017.35 1017.31 1017.27 1017.47 1017.63 1017.71 1017.83 1017.91 1018.03 1018.27 1018.55 1018.67 1018.47 1018.23 1018.03 1017.87 1017.83 1017.71 1017.59 1017.59 1017.79 1017.71 1017.47 1017.47 1017.39 1017.27 1017.11
1014.31 1014.47 1014.79 1014.95 1015.19 1015.43 1015.63 1015.71 1015.99 1016.31 1016.43 1016.55 1016.83 1016.91 1017.07 1017.23 1017.23 1017.11 1017.19 1017.35 1017.91 1018.15 1018.15 1018.15 1018.07 1018.27 1018.55 1018.47 1018.19 1018.11 1018.03 1017.87 1017.87 1017.67 1017.75 1017.83 1017.87 1017.75 1017.55 1017.43 1017.51 1017.35
Thickness
5665 5664 5663 5663 5662 5662 5661 5660 5659 5657 5656 5655 5655 5655 5655 5656 5655 5655 5654 5654 5652 5652 5651 5650 5649 5648 5647 5646 5644 5644 5642 5641 5641 5639 5638 5637 5636 5635 5635 5634 5633 5632
5666 5665 5665 5664 5663 5663 5662 5660 5659 5658 5658 5656 5656 5656 5656 5656 5656 5656 5655 5654 5652 5651 5651 5649 5648 5647 5646 5645 5644 5642 5642 5640 5640 5640 5638 5637 5636 5635 5635 5634 5633 5632
5667 5666 5666 5666 5665 5664 5663 5662 5660 5659 5659 5658 5657 5657 5657 5657 5656 5656 5655 5654 5652 5652 5650 5649 5647 5646 5645 5644 5643 5641 5641 5640 5640 5640 5638 5637 5636 5635 5635 5634 5633 5632
5668 5668 5668 5667 5666 5665 5664 5663 5662 5661 5660 5659 5659 5658 5658 5657 5656 5656 5654 5653 5652 5651 5650 5649 5647 5646 5645 5644 5643 5641 5641 5641 5640 5640 5637 5637 5637 5636 5635 5634 5633 5632
5670 5669 5668 5667 5666 5665 5664 5664 5663 5662 5661 5660 5660 5659 5658 5657 5655 5655 5654 5652 5651 5650 5650 5649 5648 5647 5645 5644 5643 5641 5641 5641 5641 5639 5637 5638 5638 5636 5635 5633 5632 5631
5671 5669 5669 5668 5667 5666 5665 5664 5662 5661 5660 5660 5660 5659 5657 5657 5656 5654 5654 5652 5651 5650 5650 5649 5648 5647 5646 5644 5642 5642 5641 5641 5640 5638 5637 5637 5637 5635 5634 5633 5631 5630
5672 5670 5670 5668 5667 5666 5664 5663 5662 5661 5661 5661 5661 5660 5658 5657 5657 5655 5653 5652 5651 5650 5650 5649 5648 5648 5647 5645 5643 5642 5641 5641 5640 5638 5637 5637 5636 5634 5634 5632 5631 5630
5672 5670 5669 5667 5666 5665 5663 5663 5662 5662 5662 5661 5660 5659 5658 5657 5656 5654 5652 5651 5649 5648 5648 5648 5647 5647 5646 5645 5643 5642 5641 5640 5639 5638 5637 5636 5635 5634 5633 5631 5629 5628
5670 5668 5667 5666 5665 5665 5664 5664 5663 5662 5661 5660 5659 5658 5657 5656 5655 5653 5652 5650 5648 5647 5646 5645 5644 5644 5644 5643 5642 5641 5640 5639 5638 5636 5636 5635 5633 5632 5630 5628 5626 5625
5669 5667 5666 5666 5665 5665 5664 5663 5662 5661 5660 5659 5658 5657 5656 5655 5654 5652 5651 5649 5647 5645 5644 5643 5641 5640 5640 5639 5639 5638 5637 5636 5635 5634 5633 5631 5630 5629 5627 5625 5623 5622
5668 5667 5666 5666 5665 5664 5664 5662 5661 5659 5658 5657 5657 5655 5653 5652 5651 5649 5648 5647 5644 5643 5641 5640 5638 5637 5637 5635 5635 5634 5633 5632 5632 5631 5629 5628 5626 5625 5624 5622 5620 5618
5668 5667 5666 5665 5664 5663 5662 5660 5659 5657 5656 5654 5653 5652 5650 5649 5648 5646 5644 5643 5640 5639 5638 5636 5635 5634 5633 5631 5630 5629 5629 5627 5626 5625 5624 5623 5621 5620 5619 5617 5616 5614
5668 5667 5666 5664 5663 5661 5659 5657 5656 5653 5652 5651 5649 5648 5646 5644 5643 5641 5639 5638 5635 5633 5632 5630 5630 5628 5627 5626 5625 5624 5623 5622 5620 5618 5617 5616 5615 5614 5613 5611 5610 5609
5668 5666 5664 5662 5660 5659 5656 5654 5652 5649 5647 5646 5644 5643 5641 5639 5638 5636 5634 5632 5629 5627 5625 5624 5623 5621 5619 5618 5617 5616 5616 5614 5612 5611 5610 5608 5607 5607 5606 5605 5604 5603
5665 5664 5661 5660 5658 5656 5654 5651 5648 5646 5643 5641 5639 5638 5635 5634 5633 5630 5628 5626 5623 5620 5619 5618 5616 5613 5611 5611 5610 5609 5608 5607 5605 5604 5602 5601 5600 5599 5599 5598 5597 5596
5663 5661 5659 5657 5655 5653 5651 5648 5645 5642 5639 5637 5634 5632 5630 5629 5627 5625 5622 5619 5617 5615 5613 5611 5609 5606 5605 5604 5604 5603 5601 5600 5599 5597 5595 5594 5592 5591 5591 5590 5589 5588
5661 5658 5656 5654 5652 5650 5648 5644 5641 5639 5636 5633 5630 5627 5625 5624 5622 5619 5617 5613 5611 5609 5607 5605 5602 5600 5598 5598 5597 5596 5594 5593 5591 5589 5588 5586 5585 5583 5581 5580 5580 5579
5659 5657 5653 5651 5649 5646 5643 5640 5637 5635 5631 5629 5626 5623 5621 5618 5616 5613 5611 5608 5606 5604 5601 5599 5596 5594 5593 5591 5590 5589 5587 5585 5583 5582 5580 5578 5576 5575 5573 5572 5571 5570
5657 5655 5651 5648 5645 5642 5639 5637 5634 5631 5627 5626 5623 5619 5616 5613 5610 5608 5606 5603 5600 5598 5594 5592 5590 5588 5586 5585 5583 5581 5580 5578 5576 5574 5573 5570 5568 5567 5565 5564 5562 5561
5654 5652 5649 5645 5642 5639 5636 5633 5630 5626 5623 5621 5618 5614 5611 5608 5605 5603 5600 5597 5595 5592 5589 5586 5584 5581 5579 5578 5576 5574 5572 5571 5568 5566 5565 5562 5560 5559 5557 5555 5554 5552
5652 5649 5645 5642 5638 5636 5633 5629 5625 5621 5618 5615 5613 5610 5606 5603 5601 5599 5595 5592 5589 5586 5584 5581 5578 5575 5573 5571 5569 5566 5565 5563 5561 5559 5557 5555 5553 5551 5549 5547 5545 5544
5649 5646 5641 5638 5634 5631 5628 5624 5621 5618 5614 5611 5608 5604 5601 5599 5596 5594 5591 5587 5584 5582 5580 5577 5572 5568 5566 5564 5562 5560 5558 5556 5553 5551 5549 5547 5545 5543 5541 5539 5538 5536
5646 5643 5638 5634 5631 5628 5625 5622 5618 5614 5611 5609 5605 5600 5597 5594 5592 5588 5585 5582 5579 5577 5575 5571 5566 5561 5558 5557 5555 5554 5552 5549 5547 5544 5542 5539 5538 5535 5533 5532 5531 5528
5643 5639 5635 5631 5628 5625 5621 5616 5613 5610 5608 5606 5602 5597 5593 5590 5588 5584 5580 5577 5575 5572 5569 5565 5559 5554 5552 5550 5549 5547 5546 5543 5541 5538 5535 5532 5530 5528 5526 5523 5522 5521
5640 5636 5633 5629 5625 5621 5617 5613 5610 5607 5604 5601 5598 5594 5590 5586 5582 5578 5575 5572 5569 5566 5562 5558 5554 5549 5546 5545 5543 5542 5540 5537 5535 5533 5529 5526 5523 5520 5518 5515 5514 5512
5636 5633 5629 5626 5622 5617 5613 5611 5607 5603 5600 5596 5593 5589 5585 5581 5577 5574 5571 5567 5562 5558 5555 5551 5548 5545 5542 5540 5538 5536 5534 5531 5529 5526 5522 5519 5516 5513 5511 5508 5505 5503